FREGAT DEB, 45650

Orbit data source: Space-Track

FREGAT DEB, 45650 is space debris in LEO originally from a launch on Mon, 18 Jul 2011 UTC launched from the Tyuratam Missile And Space Complex (TTMTR). Debris objects in space refer to the collection of defunct objects orbiting the Earth. Examples of debris include non-operational satellites, rocket bodies, and fragments generated from explosions, collisions, or faulty payload assembly.

Loading next visibility...
Identifier
45650, 2011-037AS
Orbit
LEO
Country
Flag of CISCIS
Related business
Manufacturer
Lavochkin
Mission
Spacecraft
Bus & Motor
Unknown
Mass
Unknown
Launch date (UTC)
2011-07-18 (14 years ago)
Launch vehicle
Unknown
Launch site
Tyuratam Missile And Space Complex (TTMTR)
Object type
Payload
Rocket body
Debris
Shape & HBR
Unknown shape, 0.1 m
Radar Cross Section
Small (<0.1 m²)

Expand to show TLE details & history
Last TLE update: 2 days ago

TLE from 2 days ago
0 FREGAT DEB
1 45650U 11037AS  25286.05339578  .00021268  00000-0  40165-2 0  9992
2 45650  51.4552 237.8083 1692685 355.7328   3.0500 11.71710771226152
Epoch: 2025-10-13T01:16Z
TLE epoch observation values (Epoch: 2025-10-13T01:16:53.395Z)
Latitude
-0.00004°
Longitude
-163.27591°
Altitude
427.568 km
Speed
8.276 km/s
True Right ascension
15h 51m 13s
True Declination
0° 00' 00"
Sunlit
Object was in daylight at epoch
Visualization orbit readout
Latitude
Unknown
Longitude
Unknown
Altitude
Unknown
Speed
Unknown
Apparent Right ascension
Unknown
Apparent Declination
Unknown
Sunlit
N/A
Visualization observer readout
Local Sidereal Time
11:57:18
Azimuth
Unknown
Elevation
Unknown
Doppler factor
Unknown
Orbital elements
Apogee altitude
3,196.61 km
Perigee altitude
424.444 km
Semi-major axis
8,188.664 km
Eccentricity
0.16927
Inclination
51.4552°
RAAN
237.8083°
Arg. of periapsis
355.7328°
True anomaly
4.35457°
Mean anomaly
3.05°
Eccentric anomaly
3.67095°
Mean motion
2.92903 °/min
Orbital period
122.91 mins
BSTAR
0.0040165
Loading maneuver chart data...
Computing Atmospheric mass density...
Loading historical data...
Loading historical data...
Loading historical data...
Loading historical data...
Loading historical data...
Loading historical data...
Loading historical data...

Documentation

Showing up to 5 results
|